Flag Weather past 2 weeks in Ettlingen, Baden-Württemberg, Germany

Now
45 °F

Partly sunny.


Feels Like: 43 °F
Forecast: 37 / 46 °F
Wind: 3 mph from East

Location: Karlsruhe - Baden Wurttemberg

Current Time: Nov 27, 2014 at 3:52:08 PM

Latest Report: Nov 27, 2014 at 3:20 PM


Visibility: 4 mi

Pressure: 29.77 "Hg

Humidity: 87%

Dew point: 41 °F

Location of EttlingenLocation

Historic Weather in Ettlingen — Graph

°F

Ettlingen temperature yesterday

Maximum temperature yesterday: 45 °F (at 5:20 AM)
Minimum temperature yesterday: 41 °F (at 7:50 PM)
Average temperature yesterday: 44 °F

Past Weeks' High & Low Weather Summary

 TemperatureHumidityPressure
High55 °F (Nov 16, 1:20 PM)100% (Nov 12, 7:20 PM)30.30 "Hg (Nov 12, 7:20 PM)
Low36 °F (Nov 24, 7:20 AM)67% (Nov 16, 3:20 PM)29.56 "Hg (Nov 15, 10:50 PM)
Average46 °F90%29.95 "Hg
* Reported Nov 12 2:20 PM — Nov 27 2:50 PM, Ettlingen, Weather by CustomWeather, © 2014

Note: Actual official high and low records may vary slightly from our data, if they occured in-between our weather recording intervals... More about our weather records

Advertising

Ettlingen weather history for previous 24 hours

 ConditionsComfort  
Time TempWeatherWind HumidityBarometerVisibility
2:50 PM
Nov 27
45 °FDrizzle. Fog.2 mph81%29.77 "Hg3 mi
2:20 PM45 °FDrizzle. Fog.3 mph87%29.80 "Hg3 mi
1:51 PM45 °FDrizzle. Fog.1 mph87%29.80 "Hg3 mi
1:20 PM45 °FFog.3 mph81%29.77 "Hg3 mi
12:50 PM45 °FFog.2 mph81%29.80 "Hg3 mi
12:20 PM45 °FFog.3 mph81%29.80 "Hg3 mi
11:50 AM43 °FQuite cool.2 mph87%29.80 "HgN/A
11:20 AM43 °FFog.3 mph87%29.80 "Hg3 mi
10:50 AM43 °FFog.3 mph87%29.80 "Hg3 mi
10:20 AM43 °FFog.3 mph87%29.83 "Hg3 mi
9:50 AM43 °FFog.6 mph87%29.80 "Hg3 mi
9:20 AM41 °FFog.5 mph93%29.80 "Hg3 mi
8:50 AM41 °FFog.6 mph93%29.80 "Hg3 mi
8:20 AM41 °FPartly sunny.5 mph93%29.80 "Hg4 mi
7:50 AM41 °FPassing clouds.3 mph93%29.80 "Hg4 mi
7:20 AM41 °FPassing clouds.6 mph87%29.80 "Hg4 mi
6:50 AM41 °FPassing clouds.6 mph93%29.83 "Hg4 mi
6:20 AM41 °FPassing clouds.5 mph87%29.83 "Hg4 mi
5:50 AM41 °FPassing clouds.2 mph87%29.83 "Hg4 mi
5:20 AM41 °FPassing clouds.3 mph87%29.83 "Hg4 mi
4:50 AM41 °FPassing clouds.7 mph87%29.83 "HgN/A
4:20 AM41 °FPassing clouds.7 mph87%29.83 "HgN/A
11:20 PM
Nov 26
43 °FPassing clouds.8 mph81%29.92 "HgN/A
10:50 PM43 °FPassing clouds.5 mph81%29.92 "HgN/A
10:20 PM43 °FPassing clouds.2 mph81%29.92 "HgN/A
9:50 PM43 °FClear.5 mph81%29.92 "Hg10 mi
9:20 PM43 °FClear.3 mph81%29.92 "Hg10 mi
8:50 PM43 °FClear.6 mph81%29.92 "Hg10 mi
8:20 PM43 °FClear.7 mph81%29.92 "Hg10 mi
7:50 PM41 °FClear.6 mph87%29.92 "Hg10 mi
7:20 PM43 °FClear.5 mph81%29.92 "Hg10 mi
6:50 PM43 °FPartly cloudy.5 mph81%29.92 "Hg6 mi
6:20 PM45 °FPartly cloudy.5 mph81%29.95 "Hg6 mi
5:50 PM45 °FPartly cloudy.6 mph81%29.92 "HgN/A
5:20 PM45 °FPassing clouds.5 mph81%29.95 "Hg6 mi
4:50 PM45 °FPassing clouds.7 mph76%29.95 "Hg6 mi
4:20 PM45 °FPartly sunny.6 mph81%29.95 "Hg6 mi
3:50 PM45 °FPartly sunny.7 mph81%29.95 "Hg6 mi
3:20 PM45 °FPartly sunny.8 mph81%29.95 "Hg6 mi
Weather by CustomWeather, © 2014

See weather overviewHow to use our weather pages